Location: Windsor
(43.2292°N, 89.3015°W)
Time: 22:14:30
(UTC+00:00)

S-56A Canister/Altair - All Passes

Search period start: 28 May 2022 00:00
Search period end: 07 June 2022 00:00
Orbit: 634 x 2499 km, 38.9° (Epoch: 27 May)

Date Brightness Start Highest point End Pass type
(mag) Time Alt. Az. Time Alt. Az. Time Alt. Az.
28 May - 01:23:38 10° W 01:38:13 75° S 01:52:35 10° E daylight
28 May - 03:29:53 10° W 03:44:42 61° SSW 03:57:18 10° SE visible
28 May - 05:37:31 10° W 05:49:21 31° SW 05:59:00 10° SSE visible
28 May - 20:44:54 10° S 20:53:56 28° SE 21:04:57 10° E daylight
28 May - 22:46:02 10° SW 22:58:15 58° SSE 23:12:55 10° E daylight
29 May - 00:50:26 10° WSW 01:04:35 75° S 01:19:20 10° E daylight
29 May - 02:56:24 10° W 03:11:13 65° SSW 03:24:26 10° ESE visible
29 May - 05:03:37 10° W 05:16:16 35° SW 05:26:46 10° SSE visible
29 May - 20:12:59 10° S 20:21:00 23° SE 20:30:48 10° E daylight
29 May - 22:13:21 10° SW 22:24:54 54° SSE 22:39:17 10° E daylight
30 May - 00:17:19 10° WSW 00:30:59 74° S 00:45:58 10° E daylight
30 May - 02:22:59 10° W 02:37:41 67° SSW 02:51:27 10° ESE visible
30 May - 04:29:49 10° W 04:43:06 40° SW 04:54:22 10° SSE visible
30 May - 06:41:50 10° WSW 06:46:15 12° WSW 06:50:21 10° SW visible
30 May - 19:41:19 10° S 19:48:11 19° SE 19:56:27 10° E daylight
30 May - 21:40:47 10° SW 21:51:38 50° SSE 22:05:35 10° E daylight
30 May - 23:44:18 10° WSW 23:57:24 73° S 00:12:31 10° E daylight
31 May - 01:49:39 10° W 02:04:07 70° SSW 02:18:22 10° ESE visible
31 May - 03:56:09 10° W 04:09:51 44° SW 04:21:50 10° SSE visible
31 May - 06:06:21 10° W 06:13:24 16° SW 06:19:48 10° SSW visible
31 May - 19:10:02 10° SSE 19:15:26 16° SE 19:21:45 10° E daylight
31 May - 21:08:19 10° SW 21:18:28 46° SE 21:31:49 10° E daylight
31 May - 23:11:24 10° WSW 23:23:52 71° S 23:39:00 10° E daylight
01 Jun - 01:16:25 10° W 01:30:31 71° S 01:45:11 10° ESE daylight
01 Jun - 03:22:34 10° W 03:36:31 48° SSW 03:49:10 10° SE visible
01 Jun - 05:31:38 10° W 05:40:29 19° SW 05:48:26 10° SSW visible
01 Jun - 18:39:34 10° SE 18:42:46 12° ESE 18:46:17 10° ESE daylight
01 Jun - 20:36:00 10° SSW 20:45:24 41° SE 20:57:59 10° E daylight
01 Jun - 22:38:34 10° WSW 22:50:24 69° SSE 23:05:23 10° E daylight
02 Jun - 00:43:15 10° W 00:56:55 73° S 01:11:52 10° ESE daylight
02 Jun - 02:49:06 10° W 03:03:08 51° SSW 03:16:23 10° SE visible
02 Jun - 04:57:19 10° W 05:07:28 22° SW 05:16:40 10° S visible
02 Jun - 20:03:46 10° SSW 20:12:26 36° SE 20:24:05 10° E daylight
02 Jun - 22:05:52 10° WSW 22:17:01 66° SSE 22:31:43 10° E daylight
03 Jun - 00:10:13 10° W 00:23:21 74° S 00:38:28 10° ESE daylight
03 Jun - 02:15:44 10° W 02:29:41 55° SSW 02:43:28 10° SE visible
03 Jun - 04:23:16 10° W 04:34:24 26° SW 04:44:36 10° S visible
03 Jun - 19:31:41 10° SSW 19:39:34 31° SE 19:50:08 10° E daylight
03 Jun - 21:33:15 10° WSW 21:43:43 63° SSE 21:58:00 10° E daylight
03 Jun - 23:37:15 10° W 23:49:48 74° S 00:04:59 10° ESE daylight
04 Jun - 01:42:29 10° W 01:56:11 58° SSW 02:10:26 10° SE visible
04 Jun - 03:49:25 10° W 04:01:14 29° SW 04:12:20 10° S visible
04 Jun - 18:59:44 10° S 19:06:47 27° SE 19:16:07 10° E daylight
04 Jun - 21:00:42 10° SW 21:10:30 59° SSE 21:24:15 10° E daylight
04 Jun - 23:04:22 10° W 23:16:18 74° S 23:31:24 10° E daylight
05 Jun - 01:09:18 10° W 01:22:41 61° SSW 01:37:16 10° SE daylight
05 Jun - 03:15:45 10° W 03:28:00 33° SW 03:39:53 10° SSE visible
05 Jun - 18:27:59 10° S 18:34:06 22° SE 18:42:00 10° E daylight
05 Jun - 20:28:16 10° SW 20:37:24 55° SSE 20:50:28 10° E daylight
05 Jun - 22:31:36 10° W 22:42:51 74° S 22:57:46 10° E daylight
06 Jun - 00:36:14 10° W 00:49:10 63° SSW 01:04:01 10° ESE daylight
06 Jun - 02:42:13 10° W 02:54:43 36° SW 03:07:16 10° SSE visible
06 Jun - 04:55:12 10° WSW 04:58:28 11° SW 05:01:42 10° SW visible
06 Jun - 17:56:28 10° SSE 18:01:30 18° SE 18:07:43 10° E daylight
06 Jun - 19:55:55 10° SW 20:04:23 50° SSE 20:16:40 10° E daylight
06 Jun - 21:58:53 10° WSW 22:09:29 73° S 22:24:04 10° E daylight
